User: anonymous   Login
Location: Vancouver
(49.2500°N, 123.1330°W)
Time: 14:59:39
(UTC-08:00)
Language:

AO-27 - Orbit

View from above orbital plane
View from above orbital plane
View from above satellite
View from above satellite

Ground track
Ground track

The orbit data is extracted from the following two-line orbital elements,

1 22825U 93061C   15026.85137947  .00000089  00000-0  52056-4 0  8758
2 22825 098.6920 337.0628 0008367 010.6936 047.7034 14.29824128112744
Epoch (UTC): 26 January 2015 20:25:59
Eccentricity: 0.0008367
inclination: 98.6920°
perigee height: 786 km
apogee height: 798 km
right ascension of ascending node: 337.0628°
argument of perigee: 10.6936°
revolutions per day: 14.29824128
mean anomaly at epoch: 47.7034°
orbit number at epoch: 11274

The dashed part of the orbit path shows where the satellite is in the earth's shadow,  

DLR